Location: Rancho Del Sol Observatory
(38.7214°N, 120.6350°W)
Time: 12:41:21
(UTC-08:00)

Courier 1B Rocket - Pass Details

Date: 02 February 2020
Orbit: 920 x 1202 km, 28.2° (Epoch: 19 February)

Event Time Altitude Azimuth Distance (km) Brightness Sun altitude
Rises 09:12:07 0° 245° (WSW) 4,091 8.0 19.7°
Reaches altitude 10° 09:15:14 10° 237° (WSW) 3,123 7.6 20.2°
Maximum altitude 09:22:10 36° 174° (S) 1,766 7.4 21.1°
Drops below altitude 10° 09:28:54 10° 111° (ESE) 3,018 8.9 22.1°
Sets 09:31:51 0° 103° (ESE) 3,939 9.0 22.5°
